TimeEST,TemperatureF,Dew PointF,Humidity,Sea Level PressureIn,VisibilityMPH,Wind Direction,Wind SpeedMPH,Gust SpeedMPH,PrecipitationIn,Events,Conditions,WindDirDegrees,DateUTC
12:14 AM,33.3,32.0,95,29.74,10.0,Calm,Calm,-,N/A,,Overcast,0,2012-12-19 05:14:00
12:35 AM,33.3,32.0,95,29.74,10.0,Calm,Calm,-,N/A,,Overcast,0,2012-12-19 05:35:00
12:55 AM,33.4,32.0,94,29.74,10.0,Calm,Calm,-,N/A,,Overcast,0,2012-12-19 05:55:00
1:14 AM,33.8,32.2,94,29.75,7.0,Calm,Calm,-,N/A,,Overcast,0,2012-12-19 06:14:00
1:35 AM,33.3,32.0,95,29.75,10.0,Calm,Calm,-,N/A,,Overcast,0,2012-12-19 06:35:00
1:55 AM,33.3,32.0,95,29.77,7.0,Calm,Calm,-,N/A,,Overcast,0,2012-12-19 06:55:00
2:14 AM,32.9,32.0,96,29.77,7.0,Calm,Calm,-,N/A,,Overcast,0,2012-12-19 07:14:00
2:35 AM,33.1,32.0,96,29.78,7.0,Calm,Calm,-,N/A,,Overcast,0,2012-12-19 07:35:00
2:55 AM,33.8,32.4,94,29.79,7.0,Calm,Calm,-,N/A,,Overcast,0,2012-12-19 07:55:00
3:14 AM,33.1,32.0,96,29.80,7.0,Calm,Calm,-,N/A,,Overcast,0,2012-12-19 08:14:00
3:35 AM,33.8,32.5,95,29.81,7.0,Calm,Calm,-,N/A,,Overcast,0,2012-12-19 08:35:00
3:55 AM,33.6,32.4,95,29.81,5.0,Calm,Calm,-,N/A,,Overcast,0,2012-12-19 08:55:00
4:14 AM,34.2,32.9,95,29.82,5.0,Calm,Calm,-,N/A,,Overcast,0,2012-12-19 09:14:00
4:35 AM,34.2,32.5,94,29.83,5.0,NW,4.6,-,N/A,,Overcast,310,2012-12-19 09:35:00
4:54 AM,34.0,32.4,94,29.84,5.0,NW,4.6,-,N/A,,Overcast,310,2012-12-19 09:54:00
5:15 AM,34.3,32.9,94,29.85,5.0,WNW,4.6,-,N/A,,Overcast,290,2012-12-19 10:15:00
5:34 AM,34.7,32.7,92,29.86,5.0,Calm,Calm,-,N/A,,Overcast,0,2012-12-19 10:34:00
5:55 AM,34.3,32.4,92,29.86,5.0,Calm,Calm,-,N/A,,Overcast,0,2012-12-19 10:55:00
6:15 AM,34.5,32.5,92,29.87,4.0,NW,3.5,-,N/A,,Overcast,320,2012-12-19 11:15:00
6:34 AM,34.3,32.5,93,29.88,5.0,Calm,Calm,-,N/A,,Overcast,0,2012-12-19 11:34:00
6:55 AM,33.8,32.0,93,29.90,3.0,Calm,Calm,-,N/A,,Overcast,0,2012-12-19 11:55:00
7:14 AM,33.8,32.2,94,29.90,3.0,Calm,Calm,-,N/A,,Overcast,0,2012-12-19 12:14:00
7:34 AM,33.1,32.0,96,29.90,3.0,Calm,Calm,-,N/A,,Overcast,0,2012-12-19 12:34:00
7:55 AM,32.7,31.8,96,29.91,2.5,Calm,Calm,-,N/A,,Overcast,0,2012-12-19 12:55:00
8:14 AM,31.5,30.4,96,29.92,1.5,Calm,Calm,-,N/A,,Overcast,0,2012-12-19 13:14:00
8:35 AM,31.8,30.9,96,29.92,1.2,Calm,Calm,-,N/A,,Mostly Cloudy,0,2012-12-19 13:35:00
8:55 AM,30.9,30.0,96,29.93,1.0,Calm,Calm,-,N/A,,Mostly Cloudy,0,2012-12-19 13:55:00
9:14 AM,32.9,32.0,96,29.95,1.5,Calm,Calm,-,N/A,,Mist,0,2012-12-19 14:14:00
9:40 AM,34.0,33.1,96,29.96,2.5,Calm,Calm,-,N/A,,Clear,0,2012-12-19 14:40:00
9:55 AM,36.9,35.4,95,29.96,4.0,West,3.5,-,N/A,,Clear,270,2012-12-19 14:55:00
10:14 AM,37.8,33.1,83,29.98,5.0,WSW,4.6,-,N/A,,Haze,250,2012-12-19 15:14:00
10:35 AM,38.3,32.7,80,29.99,7.0,WSW,4.6,-,N/A,,Clear,240,2012-12-19 15:35:00
10:55 AM,38.5,32.9,80,30.00,7.0,WSW,8.1,-,N/A,,Clear,250,2012-12-19 15:55:00
11:14 AM,38.5,33.1,81,30.02,7.0,SW,9.2,-,N/A,,Scattered Clouds,230,2012-12-19 16:14:00
11:35 AM,38.3,33.6,83,30.02,5.0,SSW,6.9,-,N/A,,Scattered Clouds,210,2012-12-19 16:35:00
11:54 AM,39.4,33.6,80,30.02,7.0,WSW,6.9,-,N/A,,Clear,240,2012-12-19 16:54:00
12:14 PM,39.4,32.5,76,30.03,10.0,WSW,8.1,-,N/A,,Clear,250,2012-12-19 17:14:00
12:35 PM,39.7,32.5,75,30.03,10.0,West,9.2,-,N/A,,Scattered Clouds,260,2012-12-19 17:35:00
12:54 PM,40.6,32.5,73,30.03,10.0,SW,6.9,-,N/A,,Scattered Clouds,230,2012-12-19 17:54:00
1:15 PM,41.5,31.6,68,30.03,10.0,SW,8.1,-,N/A,,Mostly Cloudy,220,2012-12-19 18:15:00
1:35 PM,41.7,32.0,68,30.02,10.0,SW,8.1,-,N/A,,Mostly Cloudy,230,2012-12-19 18:35:00
1:54 PM,42.3,32.0,67,30.02,10.0,WSW,4.6,-,N/A,,Scattered Clouds,250,2012-12-19 18:54:00
2:15 PM,42.8,31.3,64,30.03,10.0,West,8.1,-,N/A,,Clear,260,2012-12-19 19:15:00
2:35 PM,43.3,31.5,63,30.03,10.0,West,6.9,-,N/A,,Scattered Clouds,280,2012-12-19 19:35:00
2:54 PM,42.8,31.5,64,30.03,10.0,West,6.9,-,N/A,,Mostly Cloudy,260,2012-12-19 19:54:00
3:15 PM,42.6,31.5,65,30.04,10.0,West,5.8,-,N/A,,Scattered Clouds,270,2012-12-19 20:15:00
3:35 PM,41.9,31.6,67,30.05,10.0,West,4.6,-,N/A,,Clear,260,2012-12-19 20:35:00
3:54 PM,42.1,31.1,65,30.05,10.0,Calm,Calm,-,N/A,,Mostly Cloudy,0,2012-12-19 20:54:00
4:15 PM,41.2,29.7,64,30.05,10.0,Calm,Calm,-,N/A,,Overcast,0,2012-12-19 21:15:00
4:35 PM,40.5,30.0,66,30.05,10.0,Calm,Calm,-,N/A,,Overcast,0,2012-12-19 21:35:00
4:54 PM,37.9,31.6,78,30.05,10.0,Calm,Calm,-,N/A,,Mostly Cloudy,0,2012-12-19 21:54:00
5:15 PM,36.5,30.2,78,30.06,10.0,Calm,Calm,-,N/A,,Mostly Cloudy,0,2012-12-19 22:15:00
5:34 PM,36.7,30.6,78,30.07,10.0,Calm,Calm,-,N/A,,Overcast,0,2012-12-19 22:34:00
5:54 PM,34.7,29.7,82,30.09,10.0,Calm,Calm,-,N/A,,Scattered Clouds,0,2012-12-19 22:54:00
6:15 PM,34.3,30.7,87,30.09,10.0,Calm,Calm,-,N/A,,Mostly Cloudy,0,2012-12-19 23:15:00
6:34 PM,33.1,29.8,88,30.10,10.0,Calm,Calm,-,N/A,,Scattered Clouds,0,2012-12-19 23:34:00
6:55 PM,32.0,29.3,90,30.10,10.0,SW,3.5,-,N/A,,Scattered Clouds,230,2012-12-19 23:55:00
7:14 PM,32.0,28.8,88,30.11,10.0,SSW,3.5,-,N/A,,Clear,200,2012-12-20 00:14:00
7:34 PM,31.8,29.1,90,30.12,10.0,SW,4.6,-,N/A,,Clear,230,2012-12-20 00:34:00
7:55 PM,30.2,27.7,90,30.12,10.0,SW,4.6,-,N/A,,Clear,220,2012-12-20 00:55:00
8:14 PM,29.3,27.0,91,30.12,10.0,Calm,Calm,-,N/A,,Clear,0,2012-12-20 01:14:00
8:34 PM,29.7,27.5,92,30.12,7.0,Calm,Calm,-,N/A,,Clear,0,2012-12-20 01:34:00
8:55 PM,30.2,28.4,93,30.11,7.0,Calm,Calm,-,N/A,,Clear,0,2012-12-20 01:55:00
9:14 PM,29.7,28.0,94,30.10,7.0,ENE,3.5,-,N/A,,Clear,60,2012-12-20 02:14:00
9:35 PM,30.2,28.9,95,30.10,5.0,ENE,3.5,-,N/A,,Clear,60,2012-12-20 02:35:00
9:54 PM,31.5,30.0,94,30.10,5.0,ENE,3.5,-,N/A,,Clear,60,2012-12-20 02:54:00
10:15 PM,30.7,28.9,93,30.10,5.0,Calm,Calm,-,N/A,,Clear,0,2012-12-20 03:15:00
10:34 PM,30.6,29.1,94,30.10,5.0,Calm,Calm,-,N/A,,Clear,0,2012-12-20 03:34:00
10:54 PM,29.5,28.0,94,30.10,4.0,Calm,Calm,-,N/A,,Clear,0,2012-12-20 03:54:00
11:15 PM,28.2,26.8,94,30.10,5.0,Calm,Calm,-,N/A,,Clear,0,2012-12-20 04:15:00
11:34 PM,29.3,28.2,96,30.10,4.0,Calm,Calm,-,N/A,,Clear,0,2012-12-20 04:34:00
11:55 PM,29.3,28.2,96,30.09,4.0,Calm,Calm,-,N/A,,Clear,0,2012-12-20 04:55:00